Gibbon, NE (68840)

2:03 AM CDT on September 05, 2015 (GMT -0500)
Kearney Municipal | | Change Station
CLOSE
Current Station
Airport
Location: Kearney,
Elevation: 2129 ft
Nearby Weather Stations

Elev 2129 ft 40.73 °N, 99.01 °W | Updated 8 minutes ago

Clear
Clear
73 °F
Feels Like 73 °F
N
10
Wind Variable Wind from SSE

Today
High -- | Low -- °F
--% Chance of Precip.
Yesterday
High -- | Low -- °F
Precip. -- in
7:06 AM 8:01 PM
Waning Gibbous, 51% visible
Pressure 29.88 in
Visibility 10.0 miles
Clouds Clear
Dew Point 61 °F
Humidity 65%
Rainfall 0.00 in
Snow Depth Not available.
UV 0 out of 12
Pollen 8.00 out of 12
Air Quality Not available.
Flu Activity Not available.
METAR KEAR 050655Z AUTO 16009KT 10SM CLR 23/16 A2988 RMK AO1
Pressure 29.88 in
Visibility 10.0 miles
Clouds Clear
Dew Point 61 °F
Humidity 65%
Rainfall 0.00 in
Snow Depth Not available.
UV 0 out of 12
Pollen 8.00 out of 12
Air Quality Not available.
Flu Activity Not available.
METAR KEAR 050655Z AUTO 16009KT 10SM CLR 23/16 A2988 RMK AO1

10-Day Weather Forecast

×

Almanac

Astronomy

Sep. 05, 2015 Rise Set
Actual Time
Civil Twilight
Nautical Twilight
Astronomical Twilight
Moon
Length of Visible Light
Length of Day
Tomorrow will be .
, % of the Moon is Illuminated

Today's Extremes

State Highs State Lows

Community

WunderPhotos

Upload Photos

1,852,430 photos uploaded!

WunderBlogs® & News

Nearby

Air Quality

  Air Quality AQ Index Pollutant
Not available.

Snow Depth

Station Depth Elevation

Earthquake Activity

City Distance Mag. Time & Date
Minimum magnitude displayed is 2.5.

Coastal Water Temperatures

Place Temperature

Stations

Nearby Weather Stations

Station Location Temp. Windchill Dew Point Humidity Wind Precip. Elev Updated Type